Showing default

GSAT 7A, 43864

Orbit data source: Space-Track

GSAT 7A, 43864 is a payload satellite owned by ISRO (IN) in GEO that was launched on Wed, 19 Dec 2018 UTC via a GSLV MK II launch vehicle from the Sirharikota (SRI). Payload-class satellites include a variety of spacecraft equipped with specific instruments for various scientific and technological missions. These include communications satellites like Starlink; space stations such as the ISS; scientific satellites like the Hubble; Earth observation satellites from companies like Planet Labs, Umbra, and HawkEye 360; GPS; miniature CubeSats for education and research; and military/defense satellites.

Not visible in the next 10 days
Identifier
43864, 2018-105A
Orbit
GEO
Last TLE update
19 hours ago
Origin
Manufacturer
ISRO
Mission
Operational Defense Communications
Bus & Motor
I2K, ISRO LAM
Mass
2,250 kg wet, ~1,000 kg dry
Launch date (UTC)
2018-12-19 (6 years ago)
Launch vehicle
GSLV MK II
Launch site
Sirharikota (SRI)
Object type
Payload
Rocket body
Debris
Shape & HBR
Box + 2 Pan, 9.5 m
Radar Cross Section
8.526 m², Small (<0.1 m²)

Expand to show TLE details & history

TLE from 19 hours ago
0 GSAT 7A
1 43864U 18105A   25114.88239204  .00000028  00000-0  00000-0 0  9999
2 43864   0.0636  84.3408 0002460 319.1336 190.1265  1.00272811 23255
Epoch: 2025-04-24T21:10Z
Definitive object data (Epoch: 2025-04-24T21:10:38.672Z)
Latitude
0.03694°
Longitude
62.78045°
Altitude
35,796.044 km
Speed
3.074 km/s
True Right ascension
15h 34m 21s
True Declination
0° 02' 13"
Sunlit
Object was in daylight at TLE epoch
Visualization TLE readout
Latitude
0.03339°
Longitude
-9.26264°
Altitude
35,790.661 km
Speed
3.074 km/s
Apparent Right ascension
10h 51m 10s
Apparent Declination
-4° 55' 25"
Sunlit
Object is in daylight
Visualization observer readout
Local Sidereal Time
23:34:27
Azimuth
18.403° NNE
Elevation
-53.673°
Doppler factor
1
Orbital elements
Apogee altitude
35,797.75 km
Perigee altitude
35,777.005 km
Semi-major axis
42,165.515 km
Eccentricity
0.000246
Inclination
0.0636°
RAAN
84.3408°
Arg. of periapsis
319.1336°
True anomaly
190.12155°
Mean anomaly
190.1265°
Eccentric anomaly
190.12402°
Mean motion
0.25067 °/min
BSTAR
Unknown
Orbital period
1436.14 mins
Loading historical data...
43864 neighbors
Loading maneuver chart data...
Loading SW <> Apogee altitude chart data...
Loading historical data...
Loading historical data...
Loading historical data...
Loading historical data...
Loading historical data...
Loading historical data...
Loading historical data...
Other satellites on launch #105 in the year 2018 (2018-12-19 UTC)

GSAT 7A Visibility forecast

Observer location: undefined°, undefined°

GSAT 7A is not visible in the next 10 days
Span
Click to sort rows by Start time (UTC) header in descending order
Start Az.
Max El. time (UTC)
Max El. Az.
Max El.
End time (UTC)
End Az.
|